GCFVGCRR

Guest
Details From GCFV - Fuerteventura
To GCRR - Lanzarote
Flight Number -
Tags generated
Created
Modified
Stats Distance 33 nm / 61 km
Max Altitude 100 ft / 30 m
Waypoints 3
Social Downloads 5
Likes 0
Share VATSIM

Download

Looking for another format? Having issues loading an existing format? Contact us
Advertisement - Login to hide

Notes

Basic altitude profile: - Ascent Rate: 2500ft/min - Ascent Speed: 250kts - Cruise Altitude: 35000ft - Cruise Speed: 420kts - Descent Rate: 1500ft/min - Descent Speed: 250kts Options: - Use NATs: yes - Use PACOTS: yes - Use low airways: yes - Use high airways: yes

Route

GCFV LTE GCRR

ID Type Via Altitude Latitude Longitude Leg Dist Tot Dist Heading (true) Name
O GCFV APT - 0 ft / 0 m 28.44788˚ -13.86489˚ - 0 nm - Fuerteventura
LTE VOR - 100 ft / 30 m 28.94188˚ -13.61643˚ 32 nm 32 nm 24° / 24° LANZAROTE VOR-DME
O GCRR APT - 0 ft / 0 m 28.94547˚ -13.60522˚ 0 nm 33 nm 70° / 70° Lanzarote

Altitude Profile

Advertisement - Login to hide

GCFV

Details ICAO GCFV (FUE)
Name Fuerteventura
Region Canary Islands
Timezone Atlantic/Canary (UTC+0.0)
Stats Elevation 85 ft / 26 m (AMSL)
Location 28.447882° -13.864892°
Runways 2
Magnetic Variation 4.099° W

METAR

GCFV 121400Z 03027KT 9999 FEW037 SCT045 20/12 Q1016

Decode

TAF

TAF GCFV 120800Z 1209/1309 01015KT 9999 FEW040 TX21/1215Z TN15/1306Z

Decode

Departure Runways

ID Width Length Bearing (true) Bearing (mag) Surface Threshold Offset Overrun Length
01L 148 ft / 45 m 5,433 ft / 1,656 m 1.67° 5.77° Asphalt 0 ft / 0 m 984 ft / 300 m
01R 148 ft / 45 m 7,905 ft / 2,409 m 1.66° 5.76° Asphalt 0 ft / 0 m 3,281 ft / 1,000 m
19L 148 ft / 45 m 7,905 ft / 2,409 m 181.66° 185.76° Asphalt 0 ft / 0 m 197 ft / 60 m
19R 148 ft / 45 m 5,433 ft / 1,656 m 181.67° 185.77° Asphalt 0 ft / 0 m 820 ft / 250 m

GCRR

Details ICAO GCRR (ACE)
Name Lanzarote
Region Canary Islands
Timezone Atlantic/Canary (UTC+0.0)
Stats Elevation 0 ft / 0 m (AMSL)
Location 28.945466° -13.605223°
Runways 1
Magnetic Variation 3.977° W

METAR

GCRR 121400Z 02024G34KT 350V050 9999 FEW048 20/11 Q1017

Decode

TAF

TAF GCRR 120800Z 1209/1309 36018KT 9999 FEW040 TX21/1215Z TN15/1306Z TEMPO 1209/1309 36018G30KT

Decode

Destination Runways

ID Width Length Bearing (true) Bearing (mag) Surface Threshold Offset Overrun Length
03 148 ft / 45 m 7,893 ft / 2,406 m 26.90° 30.88° Asphalt 197 ft / 60 m 197 ft / 60 m
21 148 ft / 45 m 7,893 ft / 2,406 m 206.91° 210.89° Asphalt 197 ft / 60 m 197 ft / 60 m

Approach Navaids

Runway Type Ident Frequency Range Bearing (true) Bearing (mag) Slope Elevation
03 Localiser IRR 109.10 MHz 18 nm / 33 km 26.90° 30.88° - 47 ft / 14 m (AMSL)
03 Glidescope IRR 109.10 MHz 10 nm / 19 km 26.90° 30.88° 3.00° 0 ft / 0 m (AMSL)
03 DME IRR 109.10 MHz 18 nm / 33 km - - - 36 ft / 11 m (AMSL)

Popular Alternatives